Offutt Air Force Base

Airport
ICAO code: 
KOFF
Summary
ICAO Region: 
NAM
Territory: 
Location: 
Omaha, Nebraska,
Coordinates: 
Aerial View: 
41° 7' 10" N, 95° 54' 31" W
Metar
Observation
KOFF 241656Z 33012KT 10SM FEW020 05/M01 A2986 RMK AO2A SLP125 T00461012 PWINO PNO FZRANO TSNO VISNO RWY12 CHINO RWY12 $
Station
Omaha / Offutt Air Force Base
Date/Time
2022-01-24 16:56:00
Wind direction
330°
Wind speed
12 kts
Lowest cloud amount
few clouds
Temperature
4.6°C
Dew point
-1.2°C
Humidity
66%
Weather condition
n/a

Description

Offutt Air Force Base is a United States Air Force installation located in Sarpy County, Nebraska, 15 km south of the central business district of Omaha, Nebraska.

Climatology

Humid continental climate (Köppen climate classification Dfa) - characterized by four seasons: cold, windy, snowy winters, mild springs, hot, humid summers, and crisp and relatively short autumns. Precipitation reaches its lowest in January and February and peaks in summer and latter half of spring.

Runways

Designator Length Width Surface Rops
12/30 3566 91 PEM Yes/Yes
Airport map: 
Aerial View: 

SKYbrary Partners:

Safety knowledge contributed by: